Weather History for Angel Fire, NM

Change the Weather History Date:

Monday, May 13, 2013

  Actual Average (KSKX) Record (KSKX)
Temperature  
Mean Temperature 46 °F -  
Max Temperature 70 °F 69 °F 77 °F (1997)
Min Temperature 21 °F 34 °F 24 °F (2014)
Degree Days  
Heating Degree Days 20    
Moisture  
Dew Point 26 °F    
Average Humidity 54    
Maximum Humidity 91    
Minimum Humidity 16    
Precipitation  
Precipitation 0.00 in - - ()
Sea Level Pressure  
Sea Level Pressure 30.43 in    
Wind  
Wind Speed 2 mph (SSW)    
Max Wind Speed 21 mph    
Max Gust Speed 26 mph    
Visibility 10 miles    
Events      
Averages and records for this station are not official NWS values.
T = Trace of Precipitation, MM = Missing Value Source: NWS Daily Summary

Daily Weather History Graph

Daily Weather History Graph

Search for Another Location

Airport:

Trip Planner

Search our weather history database for the weather conditions in past years. The results will help you decide how hot, cold, wet, or windy it might be!

Date:

Astronomy

May. 13, 2013 Rise Set
Actual Time 5:55 AM MDT 7:59 PM MDT
Civil Twilight 5:27 AM MDT 8:28 PM MDT
Nautical Twilight 4:52 AM MDT 9:03 PM MDT
Astronomical Twilight 4:14 AM MDT 9:40 PM MDT
Moon 8:44 AM MDT (5/13) 11:10 PM MDT (5/13)
Length of Visible Light 15h 01m
Length of Day
14h 03m
Waxing Crescent, 12% of the Moon is Illuminated
May 13
Waxing Crescent
May 17
First Quarter
May 24
Full
May 31
Last Quarter
Jun 8
New

Hourly Weather History & Observations

Time (MDT) Temp. Windchill Dew Point Humidity Pressure Visibility Wind Dir Wind Speed Gust Speed Precip Events Conditions
12:15 AM 31.8 °F 27.3 °F 25.7 °F 78% 30.45 in 10.0 mi SSE 4.6 mph - N/A   Clear
12:35 AM 28.2 °F - 23.4 °F 82% 30.45 in 10.0 mi Calm Calm - N/A   Clear
12:55 AM 30.0 °F - 24.3 °F 79% 30.45 in 10.0 mi Calm Calm - N/A   Clear
1:15 AM 28.0 °F - 22.6 °F 80% 30.45 in 10.0 mi Calm Calm - N/A   Clear
1:35 AM 27.7 °F - 22.6 °F 81% 30.45 in 10.0 mi Calm Calm - N/A   Clear
1:55 AM 25.5 °F - 21.4 °F 84% 30.45 in 10.0 mi Calm Calm - N/A   Clear
2:15 AM 25.2 °F - 20.8 °F 84% 30.45 in 10.0 mi Calm Calm - N/A   Clear
2:35 AM 25.5 °F - 21.6 °F 85% 30.45 in 10.0 mi Calm Calm - N/A   Clear
2:55 AM 26.8 °F - 24.1 °F 90% 30.45 in 10.0 mi Calm Calm - N/A   Clear
3:15 AM 24.6 °F - 20.7 °F 85% 30.45 in 10.0 mi Calm Calm - N/A   Clear
3:35 AM 25.2 °F - 21.7 °F 87% 30.45 in 10.0 mi Calm Calm - N/A   Clear
3:55 AM 23.7 °F - 20.1 °F 86% 30.46 in 10.0 mi Calm Calm - N/A   Clear
4:15 AM 22.6 °F - 19.6 °F 88% 30.46 in 10.0 mi Calm Calm - N/A   Clear
4:35 AM 24.1 °F 18.2 °F 20.3 °F 85% 30.47 in 10.0 mi SSE 4.6 mph - N/A   Clear
4:55 AM 22.1 °F - 19.6 °F 90% 30.47 in 10.0 mi Calm Calm - N/A   Clear
5:15 AM 22.6 °F - 19.2 °F 87% 30.47 in 10.0 mi Calm Calm - N/A   Clear
5:55 AM 21.4 °F - 18.9 °F 90% 30.47 in 10.0 mi Calm Calm - N/A   Clear
6:15 AM 21.4 °F - 19.0 °F 91% 30.48 in 10.0 mi Calm Calm - N/A   Clear
6:35 AM 24.6 °F - 21.6 °F 88% 30.49 in 10.0 mi Calm Calm - N/A   Clear
6:55 AM 26.8 °F - 22.8 °F 85% 30.49 in 10.0 mi Calm Calm - N/A   Clear
7:15 AM 31.1 °F - 25.7 °F 80% 30.49 in 10.0 mi Calm Calm - N/A   Clear
7:35 AM 34.2 °F - 27.3 °F 76% 30.49 in 10.0 mi Calm Calm - N/A   Clear
7:55 AM 37.2 °F - 28.4 °F 70% 30.49 in 10.0 mi Calm Calm - N/A   Clear
8:15 AM 39.9 °F - 28.8 °F 64% 30.49 in 10.0 mi Calm Calm - N/A   Clear
8:35 AM 43.0 °F - 28.6 °F 57% 30.49 in 10.0 mi Calm Calm - N/A   Clear
8:55 AM 46.4 °F - 28.9 °F 51% 30.49 in 10.0 mi Calm Calm - N/A   Clear
9:15 AM 50.0 °F - 28.8 °F 44% 30.48 in 10.0 mi Calm Calm - N/A   Clear
9:35 AM 53.4 °F - 30.6 °F 42% 30.47 in 10.0 mi Calm Calm - N/A   Clear
9:55 AM 57.9 °F - 30.2 °F 35% 30.47 in 10.0 mi Calm Calm - N/A   Clear
10:15 AM 60.8 °F - 30.0 °F 31% 30.46 in 10.0 mi Calm Calm - N/A   Clear
10:35 AM 63.5 °F - 26.6 °F 25% 30.45 in 10.0 mi Calm Calm - N/A   Clear
10:55 AM 64.9 °F - 24.1 °F 21% 30.45 in 10.0 mi Calm Calm - N/A   Clear
11:15 AM 65.3 °F - 23.5 °F 20% 30.44 in 10.0 mi Calm Calm - N/A   Scattered Clouds
11:35 AM 64.4 °F - 23.4 °F 21% 30.44 in 10.0 mi WSW 3.5 mph - N/A   Scattered Clouds
11:55 AM 67.1 °F - 23.9 °F 20% 30.43 in 10.0 mi SE 10.4 mph - N/A   Scattered Clouds
12:15 PM 68.4 °F - 22.5 °F 18% 30.43 in 10.0 mi ESE 12.7 mph - N/A   Scattered Clouds
12:35 PM 70.3 °F - 21.9 °F 16% 30.42 in 10.0 mi ENE 9.2 mph - N/A   Scattered Clouds
12:55 PM 66.6 °F - 21.9 °F 18% 30.42 in 10.0 mi Calm Calm - N/A   Scattered Clouds
1:15 PM 67.1 °F - 22.8 °F 19% 30.41 in 10.0 mi WSW 6.9 mph - N/A   Mostly Cloudy
1:35 PM 67.5 °F - 21.9 °F 18% 30.41 in 10.0 mi SSE 4.6 mph - N/A   Overcast
2:35 PM 68.2 °F - 23.0 °F 18% 30.40 in 10.0 mi SW 6.9 mph - N/A   Mostly Cloudy
2:55 PM 67.8 °F - 21.7 °F 17% 30.39 in 10.0 mi Calm Calm - N/A   Mostly Cloudy
3:15 PM 68.0 °F - 24.4 °F 19% 30.39 in 10.0 mi SSW 20.7 mph 26.5 mph N/A   Mostly Cloudy
3:35 PM 66.4 °F - 22.3 °F 19% 30.39 in 10.0 mi WNW 3.5 mph - N/A   Overcast
3:55 PM 66.9 °F - 24.4 °F 20% 30.39 in 10.0 mi South 5.8 mph - N/A   Overcast
4:15 PM 67.1 °F - 22.8 °F 19% 30.38 in 10.0 mi Calm Calm - N/A   Overcast
4:35 PM 67.5 °F - 22.6 °F 18% 30.37 in 10.0 mi SW 4.6 mph - N/A   Mostly Cloudy
4:55 PM 67.1 °F - 23.0 °F 19% 30.37 in 10.0 mi SW 5.8 mph 17.3 mph N/A   Scattered Clouds
5:35 PM 67.3 °F - 29.5 °F 24% 30.37 in 10.0 mi West 18.4 mph 25.3 mph N/A   Mostly Cloudy
6:15 PM 61.7 °F - 30.6 °F 31% 30.39 in 10.0 mi WSW 13.8 mph 23.0 mph N/A   Overcast
6:35 PM 60.1 °F - 30.2 °F 32% 30.40 in 10.0 mi WSW 6.9 mph - N/A   Light Drizzle
6:55 PM 58.8 °F - 33.8 °F 39% 30.40 in 10.0 mi NE 8.1 mph - N/A   Scattered Clouds
7:15 PM 58.1 °F - 32.4 °F 38% 30.40 in 10.0 mi NE 5.8 mph - N/A   Clear
7:35 PM 56.5 °F - 33.3 °F 42% 30.41 in 10.0 mi North 4.6 mph - N/A   Clear
7:55 PM 55.2 °F - 33.8 °F 44% 30.41 in 10.0 mi Calm Calm - N/A   Scattered Clouds
8:15 PM 53.1 °F - 33.1 °F 47% 30.40 in 10.0 mi NNE 6.9 mph - N/A   Mostly Cloudy
8:35 PM 50.2 °F - 33.1 °F 52% 30.40 in 10.0 mi Calm Calm - N/A   Mostly Cloudy
8:55 PM 46.9 °F - 32.2 °F 57% 30.41 in 10.0 mi Calm Calm - N/A   Scattered Clouds
9:15 PM 45.3 °F - 32.0 °F 60% 30.41 in 10.0 mi Calm Calm - N/A   Clear
9:35 PM 41.5 °F - 30.7 °F 65% 30.41 in 10.0 mi Calm Calm - N/A   Clear
9:55 PM 39.9 °F - 30.4 °F 69% 30.41 in 10.0 mi Calm Calm - N/A   Clear
10:15 PM 40.3 °F - 30.6 °F 68% 30.41 in 10.0 mi Calm Calm - N/A   Clear
10:35 PM 39.4 °F - 29.8 °F 69% 30.41 in 10.0 mi Calm Calm - N/A   Clear
10:55 PM 35.8 °F - 27.9 °F 73% 30.41 in 10.0 mi Calm Calm - N/A   Clear
11:15 PM 35.8 °F - 27.7 °F 72% 30.41 in 10.0 mi Calm Calm - N/A   Clear
11:35 PM 33.1 °F - 27.3 °F 79% 30.40 in 10.0 mi Calm Calm - N/A   Clear
11:55 PM 32.2 °F - 26.6 °F 80% 30.40 in 10.0 mi Calm Calm - N/A   Clear